YSSY

Sydney Airport

Airport
ICAO code
YSSY
IATA Code
SYD
Summary
ICAO Region
APAC
ICAO Territory
Location

Mascot, New South Wales

Serving
Sydney
Elevation
21 ft
Coordinates
33° 56' 23" S , 151° 10' 32" E
KCC
Airport BS
Bird Strike
Metar
YSSY 210800Z 22010KT 9999 VCSH FEW030 14/09 Q1019 RF00.0/000.0 DL-SE/DL-S DIST CB TOPS WITH LIGHTNING TO S/SE

SKYbrary Partners:

Safety knowledge contributed by: